, NV

(GMT )
Eureka Airport

Weather History for K05U - November, 2012

Change the Weather History Date:

Monday, November 12, 2012

  Actual Average Record
Temperature  
Mean Temperature 28 °F -  
Max Temperature 46 °F - - ()
Min Temperature 10 °F - - ()
Degree Days  
Heating Degree Days 37    
Moisture  
Dew Point -    
Average Humidity    
Maximum Humidity    
Minimum Humidity    
Precipitation  
Precipitation 0.02 in - - ()
Sea Level Pressure  
Sea Level Pressure 30.38 in    
Wind  
Wind Speed 3 mph ()    
Max Wind Speed 8 mph    
Max Gust Speed -    
Visibility 10.0 miles    
Events      
Averages and records for this station are not official NWS values.
T = Trace of Precipitation, MM = Missing Value Source: Averaged Metar Reports

Daily Weather History Graph

Daily Weather History Graph

Search for Another Location

Airport or City:

Trip Planner

Search our weather history database for the weather conditions in past years. The results will help you decide how hot, cold, wet, or windy it might be!

Date:

Astronomy

Nov. 12, 2012 Rise Set
Actual Time 6:25 AM PST 4:30 PM PST
Civil Twilight 5:56 AM PST 4:59 PM PST
Nautical Twilight 5:24 AM PST 5:31 PM PST
Astronomical Twilight 4:52 AM PST 6:03 PM PST
Moon 4:56 AM PST (11/12) 3:38 PM PST (11/12)
Length of Visible Light 11h 02m
Length of Day
10h 05m
Waning Crescent, 2% of the Moon is Illuminated
Nov 12
Waning Crescent
Nov 13
New
Nov 20
First Quarter
Nov 28
Full
Dec 6
Last Quarter

Hourly Weather History & Observations

Time (PST) Temp. Windchill Dew Point Humidity Pressure Visibility Wind Dir Wind Speed Gust Speed Precip Events Conditions
12:00 AM 12.2 °F 6.1 °F - N/A% 30.42 in 10.0 mi South 3.5 mph - N/A   Clear
12:20 AM 12.2 °F 6.1 °F - N/A% 30.42 in 10.0 mi SSW 3.5 mph - N/A   Clear
12:40 AM 10.4 °F 0.8 °F - N/A% 30.42 in 10.0 mi SW 5.8 mph - N/A   Clear
1:00 AM 12.2 °F 2.9 °F - N/A% 30.42 in 10.0 mi SSW 5.8 mph - N/A   Clear
1:20 AM 14.0 °F 3.9 °F - N/A% 30.42 in 10.0 mi SSW 6.9 mph - N/A   Clear
1:40 AM 15.8 °F 6.1 °F - N/A% 30.42 in 10.0 mi South 6.9 mph - N/A   Clear
2:00 AM 15.8 °F 7.2 °F - N/A% 30.42 in 10.0 mi South 5.8 mph - N/A   Clear
2:20 AM 14.0 °F - - N/A% 30.42 in 10.0 mi Calm Calm - N/A   Clear
2:40 AM 10.4 °F -0.4 °F - N/A% 30.41 in 10.0 mi SW 6.9 mph - N/A   Clear
3:00 AM 14.0 °F 5.1 °F - N/A% 30.40 in 10.0 mi SW 5.8 mph - N/A   Clear
3:20 AM 14.0 °F 8.2 °F - N/A% 30.40 in 10.0 mi SW 3.5 mph - N/A   Clear
3:40 AM 14.0 °F - - N/A% 30.40 in 10.0 mi Calm Calm - N/A   Clear
4:00 AM 15.8 °F 7.2 °F - N/A% 30.41 in 10.0 mi SSW 5.8 mph - N/A   Clear
4:20 AM 14.0 °F 3.9 °F - N/A% 30.41 in 10.0 mi SW 6.9 mph - N/A   Clear
4:40 AM 14.0 °F 3.9 °F - N/A% 30.42 in 10.0 mi SSW 6.9 mph - N/A   Partly Cloudy
5:00 AM 14.0 °F 5.1 °F - N/A% 30.42 in 10.0 mi South 5.8 mph - N/A   Partly Cloudy
5:20 AM 15.8 °F 7.2 °F - N/A% 30.42 in 10.0 mi SSW 5.8 mph - N/A   Clear
5:40 AM 15.8 °F 7.2 °F - N/A% 30.41 in 10.0 mi SSW 5.8 mph - N/A   Clear
6:00 AM 14.0 °F 8.2 °F - N/A% 30.41 in 10.0 mi SSW 3.5 mph - N/A   Clear
6:20 AM 14.0 °F 6.5 °F - N/A% 30.42 in 10.0 mi SSW 4.6 mph - N/A   Clear
6:40 AM 14.0 °F - - N/A% 30.42 in 10.0 mi Calm Calm - N/A   Clear
7:00 AM 14.0 °F 3.9 °F - N/A% 30.42 in 10.0 mi SW 6.9 mph - N/A   Clear
7:20 AM 17.6 °F 8.2 °F - N/A% 30.43 in 10.0 mi SSW 6.9 mph - N/A   Clear
7:40 AM 19.4 °F 9.5 °F - N/A% 30.43 in 10.0 mi SSW 8.1 mph - N/A   Clear
8:00 AM 17.6 °F 8.2 °F - N/A% 30.43 in 10.0 mi SW 6.9 mph - N/A   Clear
8:20 AM 21.2 °F 13.6 °F - N/A% 30.43 in 10.0 mi WSW 5.8 mph - N/A   Clear
8:40 AM 26.6 °F 21.2 °F - N/A% 30.43 in 10.0 mi WSW 4.6 mph - N/A   Clear
9:00 AM 26.6 °F 21.2 °F - N/A% 30.43 in 10.0 mi SSW 4.6 mph - N/A   Clear
9:20 AM 30.2 °F - - N/A% 30.42 in 10.0 mi Calm Calm - N/A   Clear
9:40 AM 30.2 °F - - N/A% 30.43 in 10.0 mi Calm Calm - N/A   Clear
10:00 AM 32.0 °F - - N/A% 30.43 in 10.0 mi Calm Calm - N/A   Mostly Cloudy
10:20 AM 32.0 °F - - N/A% 30.42 in 10.0 mi Calm Calm - N/A   Partly Cloudy
10:40 AM 32.0 °F - - N/A% 30.41 in 10.0 mi Calm Calm - N/A   Clear
11:00 AM 33.8 °F - - N/A% 30.40 in 10.0 mi Calm Calm - 0.01 in   Clear
11:20 AM 37.4 °F - - N/A% 30.39 in 10.0 mi Calm Calm - N/A   Mostly Cloudy
11:40 AM 37.4 °F 34.9 °F - N/A% 30.38 in 10.0 mi SW 3.5 mph - 0.01 in   Overcast
12:00 PM 39.2 °F 37.0 °F - N/A% 30.37 in 10.0 mi WSW 3.5 mph - 0.01 in   Mostly Cloudy
12:20 PM 39.2 °F - - N/A% 30.37 in 10.0 mi Calm Calm - N/A   Mostly Cloudy
12:40 PM 41.0 °F 39.0 °F - N/A% 30.36 in 10.0 mi ESE 3.5 mph - N/A   Mostly Cloudy
1:00 PM 41.0 °F 39.0 °F - N/A% 30.36 in 10.0 mi East 3.5 mph - N/A   Scattered Clouds
1:20 PM 41.0 °F - - N/A% 30.35 in 10.0 mi Calm Calm - N/A   Mostly Cloudy
1:40 PM 42.8 °F - - N/A% 30.34 in 10.0 mi Calm Calm - N/A   Mostly Cloudy
2:00 PM 44.6 °F - - N/A% 30.34 in 10.0 mi Calm Calm - N/A   Scattered Clouds
2:20 PM 44.6 °F - - N/A% 30.34 in 10.0 mi Calm Calm - N/A   Partly Cloudy
2:40 PM 44.6 °F - - N/A% 30.33 in 10.0 mi Calm Calm - N/A   Partly Cloudy
3:00 PM 46.4 °F 45.2 °F - N/A% 30.33 in 10.0 mi East 3.5 mph - N/A   Mostly Cloudy
3:20 PM 46.4 °F - - N/A% 30.33 in 10.0 mi Calm Calm - N/A   Mostly Cloudy
3:40 PM 44.6 °F - - N/A% 30.33 in 10.0 mi Calm Calm - N/A   Mostly Cloudy
4:00 PM 41.0 °F - - N/A% 30.33 in 9.0 mi Calm Calm - N/A   Scattered Clouds
4:20 PM 39.2 °F - - N/A% 30.32 in 10.0 mi Calm Calm - N/A   Clear
4:40 PM 37.4 °F - - N/A% 30.33 in 10.0 mi Calm Calm - N/A   Partly Cloudy
5:00 PM 33.8 °F - - N/A% 30.33 in 10.0 mi Calm Calm - N/A   Mostly Cloudy
5:40 PM 32.0 °F - - N/A% 30.34 in 10.0 mi Calm Calm - N/A   Mostly Cloudy
6:00 PM 32.0 °F - - N/A% 30.34 in 10.0 mi Calm Calm - N/A   Scattered Clouds
6:20 PM 30.2 °F - - N/A% 30.34 in 10.0 mi Calm Calm - N/A   Clear
6:40 PM 28.4 °F 24.6 °F - N/A% 30.34 in 10.0 mi NNW 3.5 mph - N/A   Clear
7:00 PM 28.4 °F - - N/A% 30.35 in 10.0 mi Calm Calm - N/A   Clear
7:20 PM 28.4 °F 24.6 °F - N/A% 30.35 in 10.0 mi SSE 3.5 mph - N/A   Clear
7:40 PM 28.4 °F 23.3 °F - N/A% 30.36 in 10.0 mi South 4.6 mph - N/A   Clear
8:00 PM 28.4 °F - - N/A% 30.35 in 10.0 mi Calm Calm - N/A   Clear
8:20 PM 26.6 °F - - N/A% 30.36 in 10.0 mi Calm Calm - N/A   Clear
8:40 PM 26.6 °F 21.2 °F - N/A% 30.36 in 10.0 mi SSE 4.6 mph - N/A   Clear
9:00 PM 26.6 °F 21.2 °F - N/A% 30.36 in 10.0 mi South 4.6 mph - N/A   Clear
9:20 PM 26.6 °F 21.2 °F - N/A% 30.36 in 10.0 mi South 4.6 mph - N/A   Clear
9:40 PM 24.8 °F 19.1 °F - N/A% 30.37 in 10.0 mi SSW 4.6 mph - N/A   Clear
10:00 PM 24.8 °F - - N/A% 30.37 in 10.0 mi Calm Calm - N/A   Clear
10:20 PM 23.0 °F 18.4 °F - N/A% 30.37 in 10.0 mi SSE 3.5 mph - N/A   Clear
10:40 PM 24.8 °F 19.1 °F - N/A% 30.37 in 10.0 mi South 4.6 mph - N/A   Clear
11:00 PM 24.8 °F 17.9 °F - N/A% 30.37 in 10.0 mi South 5.8 mph - N/A   Clear
11:20 PM 24.8 °F 17.9 °F - N/A% 30.37 in 10.0 mi SSW 5.8 mph - N/A   Clear
11:40 PM 24.8 °F 16.9 °F - N/A% 30.37 in 10.0 mi South 6.9 mph - N/A   Clear